IRIDIUM 20 [B] (25577 NORAD) Tracking and Keplerian Element Data

This shows tracking and keplerian element data for the satellite.

Feedback or suggestion? Click here.




ElementValue
Catalog25577
NameIRIDIUM 20 [B]
Epoch Orbit21057
Epoch Day198.78912593
Epoch Year2018
RAAN90.0664
Inclination86.4218
Eccentricity0.0001557
Argument of Perigee96.3998
Mean Anonmoly263.7377
Mean Motion14.38612626
Decay Rate1.35E-06
L11 25577U 98074A 18198.78912593 .00000135 00000-0 37672-4 0 9993
L22 25577 86.4218 90.0664 0001557 96.3998 263.7377 14.38612626210573

Live tracking and technical data element details for IRIDIUM 20 [B] (NORAD 25577). IRIDIUM 20 [B] can be tracked NOW for your location showing map with azimuth and elevation plus other details from your city location.

Track the satellite on the map from your city or location and see movement details for azimuth, elevation, latitude, longitude, range, height, and movement on the map or in text.







IsCatalogInMostPopularTable: catalog: 25577, numindb: 31
Update: records affected: 1



GetName: 25577 IRIDIUM 20 [B]

Hit Count: updated at: Fri, 20 Jul 2018 07:04:54 GMT